Location: Ward Pound Ridge Reservation
(41.2500°N, 73.6000°W)
Time: 14:25:39
(UTC-05:00)

XW-2D - Visible Passes

Search period start: 19 November 2017 00:00
Search period end: 29 November 2017 00:00
Orbit: 510 x 532 km, 97.5° (Epoch: 19 November)

Date Brightness Start Highest point End Pass type
(mag) Time Alt. Az. Time Alt. Az. Time Alt. Az.
19 Nov ? 05:01:35 10° ENE 05:03:44 14° E 05:05:52 10° SE visible
19 Nov ? 17:14:54 10° S 17:18:38 84° WSW 17:22:23 10° NNW visible
20 Nov ? 17:01:45 10° SSE 17:05:25 65° ENE 17:09:09 10° N visible
21 Nov ? 06:07:52 10° N 06:11:41 82° WNW 06:15:30 10° SSW visible
21 Nov ? 18:25:12 10° WSW 18:26:39 12° W 18:28:06 10° WNW visible
22 Nov ? 05:54:40 10° NNE 05:58:28 67° E 06:02:16 10° S visible
22 Nov ? 18:10:48 10° SW 18:13:18 17° W 18:15:50 10° NW visible
23 Nov ? 05:41:33 10° NNE 05:45:14 45° E 05:48:54 10° S visible
23 Nov ? 17:56:55 10° SSW 17:59:59 24° W 18:03:06 10° NW visible
24 Nov ? 05:28:32 10° NNE 05:31:57 31° E 05:35:22 10° SSE visible
24 Nov ? 17:43:16 10° SSW 17:46:42 35° W 17:50:10 10° NNW visible
25 Nov ? 05:15:40 10° NE 05:18:40 22° E 05:21:39 10° SE visible
25 Nov ? 17:29:48 10° S 17:33:26 52° W 17:37:07 10° NNW visible
26 Nov ? 05:03:02 10° NE 05:05:20 15° E 05:07:38 10° SE visible
26 Nov ? 17:16:28 10° S 17:20:12 79° W 17:23:58 10° NNW visible
27 Nov ? 04:51:09 10° ENE 04:52:00 11° E 04:52:50 10° ESE visible
27 Nov ? 06:22:43 10° N 06:26:27 52° WNW 06:30:10 10° SSW visible
27 Nov ? 17:03:16 10° SSE 17:06:58 69° ENE 17:10:43 10° N visible
28 Nov ? 06:09:24 10° N 06:13:15 78° WNW 06:17:04 10° SSW visible
28 Nov ? 18:26:56 10° WSW 18:28:11 11° W 18:29:27 10° WNW visible
